TimeMDT,TemperatureF,Dew PointF,Humidity,Sea Level PressureIn,VisibilityMPH,Wind Direction,Wind SpeedMPH,Gust SpeedMPH,PrecipitationIn,Events,Conditions,WindDirDegrees,DateUTC
12:15 AM,42.8,19.4,39,30.56,10.0,East,3.5,-,N/A,,Clear,80,2013-05-02 06:15:00
12:55 AM,39.2,19.4,45,30.57,10.0,South,4.6,-,N/A,,Clear,170,2013-05-02 06:55:00
1:15 AM,39.2,19.4,45,30.57,10.0,South,4.6,-,N/A,,Clear,170,2013-05-02 07:15:00
1:35 AM,39.2,19.4,45,30.57,10.0,Calm,Calm,-,N/A,,Clear,0,2013-05-02 07:35:00
1:55 AM,39.2,19.4,45,30.56,10.0,WSW,4.6,-,N/A,,Clear,250,2013-05-02 07:55:00
2:15 AM,35.6,19.4,52,30.57,10.0,ENE,4.6,-,N/A,,Clear,70,2013-05-02 08:15:00
2:35 AM,39.2,19.4,45,30.57,10.0,East,4.6,-,N/A,,Clear,80,2013-05-02 08:35:00
2:55 AM,33.8,19.4,56,30.57,10.0,SSE,3.5,-,N/A,,Clear,160,2013-05-02 08:55:00
3:35 AM,35.6,19.4,52,30.57,10.0,Calm,Calm,-,N/A,,Clear,0,2013-05-02 09:35:00
3:55 AM,35.6,19.4,52,30.57,10.0,Calm,Calm,-,N/A,,Clear,0,2013-05-02 09:55:00
4:35 AM,33.8,19.4,56,30.58,10.0,Calm,Calm,-,N/A,,Clear,0,2013-05-02 10:35:00
4:55 AM,32.0,19.4,60,30.58,10.0,SE,3.5,-,N/A,,Clear,140,2013-05-02 10:55:00
5:35 AM,30.2,19.4,64,30.58,10.0,ESE,3.5,-,N/A,,Clear,110,2013-05-02 11:35:00
5:55 AM,30.2,17.6,60,30.58,10.0,SE,3.5,-,N/A,,Clear,130,2013-05-02 11:55:00
6:15 AM,30.2,17.6,60,30.58,10.0,East,4.6,-,N/A,,Clear,90,2013-05-02 12:15:00
6:35 AM,30.2,17.6,60,30.58,10.0,SE,5.8,-,N/A,,Clear,130,2013-05-02 12:35:00
6:55 AM,30.2,17.6,60,30.59,10.0,SE,6.9,-,N/A,,Clear,130,2013-05-02 12:55:00
7:15 AM,33.8,19.4,56,30.60,10.0,SSE,8.1,-,N/A,,Clear,160,2013-05-02 13:15:00
7:35 AM,37.4,19.4,48,30.60,10.0,SSE,9.2,-,N/A,,Clear,150,2013-05-02 13:35:00
7:55 AM,42.8,19.4,39,30.60,10.0,South,8.1,-,N/A,,Clear,170,2013-05-02 13:55:00
8:15 AM,44.6,19.4,37,30.60,10.0,SSE,5.8,-,N/A,,Clear,160,2013-05-02 14:15:00
8:35 AM,44.6,19.4,37,30.61,10.0,SE,8.1,-,N/A,,Clear,140,2013-05-02 14:35:00
8:55 AM,46.4,19.4,34,30.61,10.0,SSE,6.9,-,N/A,,Clear,160,2013-05-02 14:55:00
9:15 AM,48.2,19.4,32,30.61,10.0,South,9.2,-,N/A,,Clear,170,2013-05-02 15:15:00
9:35 AM,50.0,19.4,30,30.60,10.0,South,11.5,-,N/A,,Clear,180,2013-05-02 15:35:00
9:55 AM,51.8,19.4,28,30.60,10.0,South,10.4,-,N/A,,Clear,190,2013-05-02 15:55:00
10:15 AM,53.6,21.2,28,30.60,10.0,South,11.5,-,N/A,,Clear,180,2013-05-02 16:15:00
10:35 AM,53.6,19.4,26,30.59,10.0,SSE,8.1,-,N/A,,Clear,160,2013-05-02 16:35:00
10:55 AM,55.4,21.2,26,30.58,10.0,SE,9.2,-,N/A,,Clear,140,2013-05-02 16:55:00
12:35 PM,62.6,21.2,20,30.54,10.0,SW,5.8,-,N/A,,Clear,220,2013-05-02 18:35:00
12:55 PM,62.6,21.2,20,30.54,10.0,South,4.6,-,N/A,,Clear,190,2013-05-02 18:55:00
1:15 PM,62.6,21.2,20,30.53,10.0,ESE,9.2,-,N/A,,Clear,120,2013-05-02 19:15:00
1:35 PM,64.4,21.2,19,30.51,10.0,SE,9.2,-,N/A,,Clear,140,2013-05-02 19:35:00
1:55 PM,64.4,21.2,19,30.50,10.0,South,10.4,-,N/A,,Clear,170,2013-05-02 19:55:00
2:15 PM,64.4,21.2,19,30.48,10.0,South,10.4,-,N/A,,Clear,180,2013-05-02 20:15:00
2:35 PM,66.2,21.2,18,30.47,10.0,SE,12.7,19.6,N/A,,Clear,140,2013-05-02 20:35:00
2:55 PM,66.2,19.4,17,30.46,10.0,SSE,13.8,17.3,N/A,,Clear,150,2013-05-02 20:55:00
3:55 PM,69.8,17.6,14,30.42,10.0,SSE,12.7,16.1,N/A,,Clear,160,2013-05-02 21:55:00
4:15 PM,69.8,17.6,14,30.40,10.0,SE,13.8,21.9,N/A,,Clear,140,2013-05-02 22:15:00
4:35 PM,69.8,15.8,13,30.38,10.0,SE,9.2,-,N/A,,Clear,130,2013-05-02 22:35:00
4:55 PM,69.8,17.6,14,30.37,10.0,East,10.4,-,N/A,,Clear,90,2013-05-02 22:55:00
5:15 PM,71.6,17.6,13,30.36,10.0,ESE,9.2,-,N/A,,Clear,110,2013-05-02 23:15:00
5:35 PM,71.6,17.6,13,30.35,10.0,East,11.5,-,N/A,,Clear,100,2013-05-02 23:35:00
5:55 PM,71.6,19.4,14,30.34,10.0,ESE,5.8,-,N/A,,Clear,120,2013-05-02 23:55:00
6:15 PM,71.6,17.6,13,30.34,10.0,East,10.4,-,N/A,,Clear,100,2013-05-03 00:15:00
6:35 PM,71.6,19.4,14,30.33,10.0,SE,8.1,-,N/A,,Clear,140,2013-05-03 00:35:00
6:55 PM,69.8,17.6,14,30.32,10.0,SE,3.5,-,N/A,,Clear,130,2013-05-03 00:55:00
7:15 PM,69.8,24.8,18,30.31,10.0,East,5.8,-,N/A,,Clear,90,2013-05-03 01:15:00
7:35 PM,68.0,24.8,20,30.30,10.0,East,6.9,-,N/A,,Clear,90,2013-05-03 01:35:00
7:55 PM,66.2,28.4,24,30.30,10.0,ENE,5.8,-,N/A,,Clear,70,2013-05-03 01:55:00
8:15 PM,64.4,30.2,28,30.30,10.0,East,3.5,-,N/A,,Clear,80,2013-05-03 02:15:00
8:35 PM,62.6,28.4,27,30.29,10.0,NE,5.8,-,N/A,,Clear,40,2013-05-03 02:35:00
9:15 PM,60.8,23.0,23,30.29,10.0,North,4.6,-,N/A,,Clear,10,2013-05-03 03:15:00
9:35 PM,57.2,21.2,25,30.29,10.0,North,5.8,-,N/A,,Clear,10,2013-05-03 03:35:00
9:55 PM,53.6,24.8,33,30.28,10.0,North,5.8,-,N/A,,Clear,10,2013-05-03 03:55:00
10:15 PM,53.6,23.0,30,30.28,10.0,NNE,5.8,-,N/A,,Clear,30,2013-05-03 04:15:00
10:35 PM,50.0,24.8,37,30.28,9.0,NNE,3.5,-,N/A,,Clear,20,2013-05-03 04:35:00
10:55 PM,50.0,24.8,37,30.28,10.0,Calm,Calm,-,N/A,,Clear,0,2013-05-03 04:55:00
11:15 PM,51.8,23.0,33,30.28,10.0,Calm,Calm,-,N/A,,Clear,0,2013-05-03 05:15:00
11:35 PM,53.6,21.2,28,30.27,10.0,SSW,4.6,-,N/A,,Clear,200,2013-05-03 05:35:00
11:55 PM,51.8,21.2,30,30.27,10.0,SSW,3.5,-,N/A,,Clear,210,2013-05-03 05:55:00